Location: Newark
(48.9886°N, 1.2358°E)
Time: 00:45:10
(UTC+00:00)

Transit 4A - Pass Details

Date: 20 November 2019
Orbit: 870 x 975 km, 66.8° (Epoch: 12 December)

Event Time Altitude Azimuth Distance (km) Brightness Sun altitude
Exits shadow 03:44:09 18° 6° (N) 2,048 9.8 -33.6°
Maximum altitude 03:45:32 20° 24° (NNE) 1,969 9.8 -33.4°
Drops below altitude 10° 03:49:43 10° 69° (ENE) 2,546 11.0 -32.7°
Sets 03:52:56 0° 87° (E) 3,471 12.0 -32.2°
